If you wish to contribute or participate in the discussions about articles you are invited to join SKYbrary as a registered user

 Actions

Alcantarilla Airport

From SKYbrary Wiki

LERI
Airport
ICAO: LERI
Summary
Name Alcantarilla Airport
Region Europe
Territory Spain ES.gif
Location
Serving Murcia
Elevation 76.2 m <br />250 ft <br />250 ft76.2 m <br />
Type medium airport
Coordinates 37° 57' 4.00" N, 1° 13' 49.15" W
Runways
Designator Length Width Surface ROPS
7/25 938 m3,077.428 ft <br /> 45 m147.638 ft <br /> ASP /


METAR
Observation LERI 241630Z 16008KT 110V190 9999 FEW030 21/14 Q1021 NOSIG
Station Murcia / Alcantarilla
Date/Time 24 October 2021 16:30:00
Wind direction 160°
Wind speed 08 kts
Lowest cloud amount few clouds
Temperature 21°C
Dew point 14°C
Humidity 64%
QNH 1021 hPa
Weather condition n/a